| time (UTC) | temp C | wind direction | speed KPH | gust KPH | rain 1hr cm | rain 24hr cm | rain mn cm | humidity % | barometer mb |
| 20260906180029 | 25 | 156 | 3.2 | 16.1 | 0.00 | 0.00 | 0.00 | 70 | 1019.8 |
| 20260906175518 | 25 | 124 | 4.8 | 16.1 | 0.00 | 0.00 | 0.00 | 69 | 1019.8 |
| 20260906175011 | 26 | 137 | 4.8 | 12.9 | 0.00 | 0.00 | 0.00 | 68 | 1019.8 |
| 20260906174529 | 26 | 114 | 1.6 | 11.3 | 0.00 | 0.00 | 0.00 | 68 | 1019.7 |
| 20260906174008 | 26 | 112 | 1.6 | 11.3 | 0.00 | 0.00 | 0.00 | 67 | 1019.8 |
| 20260906173508 | 26 | 184 | 3.2 | 11.3 | 0.00 | 0.00 | 0.00 | 68 | 1020.0 |
| 20260906173010 | 26 | 210 | 4.8 | 11.3 | 0.00 | 0.00 | 0.00 | 68 | 1020.0 |
| 20260906172505 | 26 | 130 | 4.8 | 12.9 | 0.00 | 0.00 | 0.00 | 69 | 1020.1 |
| 20260906172009 | 26 | 209 | 3.2 | 12.9 | 0.00 | 0.00 | 0.00 | 70 | 1020.1 |
| 20260906171512 | 25 | 92 | 4.8 | 12.9 | 0.00 | 0.00 | 0.00 | 69 | 1020.0 |
| 20260906171003 | 26 | 133 | 3.2 | 12.9 | 0.00 | 0.00 | 0.00 | 71 | 1020.0 |
| 20260906170506 | 26 | 133 | 4.8 | 11.3 | 0.00 | 0.00 | 0.00 | 70 | 1020.1 |
| 20260906170020 | 26 | 22 | 1.6 | 9.7 | 0.00 | 0.00 | 0.00 | 74 | 1020.2 |
| 20260906165504 | 25 | 136 | 3.2 | 9.7 | 0.00 | 0.00 | 0.00 | 71 | 1020.2 |
| 20260906165005 | 25 | 273 | 1.6 | 11.3 | 0.00 | 0.00 | 0.00 | 72 | 1020.2 |
| 20260906164507 | 25 | 161 | 3.2 | 11.3 | 0.00 | 0.00 | 0.00 | 72 | 1020.1 |
| 20260906164008 | 25 | 330 | 0.0 | 6.4 | 0.00 | 0.00 | 0.00 | 74 | 1020.1 |
| 20260906163504 | 25 | 96 | 3.2 | 9.7 | 0.00 | 0.00 | 0.00 | 73 | 1020.1 |
| 20260906163015 | 24 | 236 | 3.2 | 9.7 | 0.00 | 0.00 | 0.00 | 76 | 1020.2 |
| 20260906162510 | 24 | 194 | 1.6 | 6.4 | 0.00 | 0.00 | 0.00 | 75 | 1020.3 |
| 20260906162008 | 24 | 102 | 1.6 | 6.4 | 0.00 | 0.00 | 0.00 | 77 | 1020.3 |
| 20260906161509 | 23 | 169 | 1.6 | 11.3 | 0.00 | 0.00 | 0.00 | 78 | 1020.1 |
| 20260906161010 | 23 | 256 | 3.2 | 11.3 | 0.00 | 0.00 | 0.00 | 79 | 1020.1 |
| 20260906160511 | 23 | 111 | 1.6 | 9.7 | 0.00 | 0.00 | 0.00 | 79 | 1020.1 |
| 20260906160017 | 23 | 127 | 1.6 | 9.7 | 0.00 | 0.00 | 0.00 | 79 | 1020.1 |
| 20260906155509 | 23 | 105 | 0.0 | 12.9 | 0.00 | 0.00 | 0.00 | 79 | 1020.2 |
| 20260906155012 | 23 | 170 | 3.2 | 12.9 | 0.00 | 0.00 | 0.00 | 79 | 1020.2 |
| 20260906154516 | 23 | 150 | 3.2 | 11.3 | 0.00 | 0.00 | 0.00 | 79 | 1020.4 |
| 20260906154006 | 23 | 112 | 1.6 | 11.3 | 0.00 | 0.00 | 0.00 | 79 | 1020.4 |
| 20260906153506 | 23 | 119 | 3.2 | 11.3 | 0.00 | 0.00 | 0.00 | 79 | 1020.4 |
| 20260906153009 | 23 | 121 | 1.6 | 11.3 | 0.00 | 0.00 | 0.00 | 79 | 1020.4 |
| 20260906152507 | 23 | 115 | 1.6 | 8.0 | 0.00 | 0.00 | 0.00 | 80 | 1020.2 |
| 20260906152007 | 23 | 147 | 0.0 | 8.0 | 0.00 | 0.00 | 0.00 | 81 | 1020.3 |
| 20260906151516 | 22 | 91 | 0.0 | 12.9 | 0.00 | 0.00 | 0.00 | 80 | 1020.3 |
| 20260906151012 | 23 | 109 | 0.0 | 12.9 | 0.00 | 0.00 | 0.00 | 80 | 1020.2 |
| 20260906150506 | 23 | 85 | 4.8 | 9.7 | 0.00 | 0.00 | 0.00 | 80 | 1020.2 |
| 20260906150015 | 23 | 96 | 1.6 | 12.9 | 0.00 | 0.00 | 0.00 | 81 | 1020.2 |
| 20260906145511 | 22 | 125 | 3.2 | 12.9 | 0.00 | 0.00 | 0.00 | 81 | 1020.2 |
| 20260906145012 | 22 | 91 | 3.2 | 9.7 | 0.00 | 0.00 | 0.00 | 82 | 1020.2 |
| 20260906144511 | 22 | 134 | 1.6 | 8.0 | 0.00 | 0.00 | 0.00 | 84 | 1020.2 |
| 20260906144009 | 21 | 115 | 0.0 | 6.4 | 0.00 | 0.00 | 0.00 | 85 | 1020.1 |
| 20260906143510 | 21 | 119 | 3.2 | 12.9 | 0.00 | 0.00 | 0.00 | 85 | 1020.0 |
| 20260906143022 | 21 | 149 | 4.8 | 16.1 | 0.00 | 0.00 | 0.00 | 86 | 1019.9 |
| 20260906142510 | 21 | 239 | 3.2 | 16.1 | 0.00 | 0.00 | 0.00 | 86 | 1019.9 |
| 20260906142008 | 21 | 164 | 3.2 | 12.9 | 0.00 | 0.00 | 0.00 | 86 | 1019.9 |
| 20260906141511 | 21 | 158 | 1.6 | 12.9 | 0.00 | 0.00 | 0.00 | 86 | 1020.0 |
| 20260906141010 | 21 | 157 | 1.6 | 11.3 | 0.00 | 0.00 | 0.00 | 87 | 1020.1 |
| 20260906140511 | 21 | 146 | 1.6 | 9.7 | 0.00 | 0.00 | 0.00 | 87 | 1020.0 |
| 20260906140021 | 20 | 115 | 1.6 | 9.7 | 0.00 | 0.00 | 0.00 | 88 | 1020.0 |
| 20260906135512 | 20 | 159 | 3.2 | 11.3 | 0.00 | 0.00 | 0.00 | 88 | 1020.0 |
| 20260906135010 | 20 | 125 | 3.2 | 11.3 | 0.00 | 0.00 | 0.00 | 89 | 1020.1 |
| 20260906134520 | 20 | 150 | 3.2 | 12.9 | 0.00 | 0.00 | 0.00 | 89 | 1020.1 |
| 20260906134012 | 20 | 134 | 1.6 | 12.9 | 0.00 | 0.00 | 0.00 | 89 | 1020.1 |
| 20260906133507 | 20 | 121 | 3.2 | 16.1 | 0.00 | 0.00 | 0.00 | 90 | 1020.1 |
| 20260906133022 | 20 | 115 | 3.2 | 16.1 | 0.00 | 0.00 | 0.00 | 89 | 1020.0 |
| 20260906132514 | 20 | 139 | 1.6 | 8.0 | 0.00 | 0.00 | 0.00 | 90 | 1020.1 |
| 20260906132012 | 20 | 172 | 1.6 | 8.0 | 0.00 | 0.00 | 0.00 | 90 | 1020.1 |
| 20260906131513 | 20 | 141 | 1.6 | 6.4 | 0.00 | 0.00 | 0.00 | 90 | 1020.0 |
| 20260906131015 | 20 | 126 | 0.0 | 4.8 | 0.00 | 0.00 | 0.00 | 91 | 1019.9 |
| 20260906130508 | 20 | 123 | 0.0 | 4.8 | 0.00 | 0.00 | 0.00 | 91 | 1019.9 |
| 20260906130014 | 20 | 169 | 0.0 | 4.8 | 0.00 | 0.00 | 0.00 | 91 | 1019.8 |
| 20260906125510 | 20 | 139 | 0.0 | 6.4 | 0.00 | 0.00 | 0.00 | 91 | 1019.9 |
| 20260906125011 | 20 | 134 | 1.6 | 6.4 | 0.00 | 0.00 | 0.00 | 91 | 1019.9 |
| 20260906124517 | 20 | 93 | 0.0 | 4.8 | 0.00 | 0.00 | 0.00 | 91 | 1019.8 |
| 20260906124011 | 20 | 136 | 0.0 | 6.4 | 0.00 | 0.00 | 0.00 | 91 | 1019.7 |
| 20260906123513 | 20 | 125 | 1.6 | 6.4 | 0.00 | 0.00 | 0.00 | 91 | 1019.7 |
| 20260906123033 | 20 | 121 | 1.6 | 6.4 | 0.00 | 0.00 | 0.00 | 91 | 1019.7 |
| 20260906122513 | 20 | 90 | 1.6 | 6.4 | 0.00 | 0.00 | 0.00 | 92 | 1019.6 |
| 20260906122012 | 20 | 121 | 0.0 | 8.0 | 0.00 | 0.00 | 0.00 | 91 | 1019.6 |
| 20260906121529 | 20 | 130 | 1.6 | 8.0 | 0.00 | 0.00 | 0.00 | 91 | 1019.6 |
| 20260906121015 | 20 | 131 | 0.0 | 8.0 | 0.00 | 0.00 | 0.00 | 91 | 1019.5 |
| 20260906120510 | 20 | 140 | 1.6 | 8.0 | 0.00 | 0.00 | 0.00 | 91 | 1019.5 |
| 20260906120027 | 20 | 128 | 1.6 | 9.7 | 0.00 | 0.00 | 0.00 | 91 | 1019.5 |
| 20260906115515 | 20 | 107 | 3.2 | 11.3 | 0.00 | 0.00 | 0.00 | 91 | 1019.5 |
| 20260906115008 | 20 | 232 | 3.2 | 9.7 | 0.00 | 0.00 | 0.00 | 91 | 1019.4 |
| 20260906114533 | 20 | 148 | 0.0 | 6.4 | 0.00 | 0.00 | 0.00 | 91 | 1019.3 |
| 20260906114004 | 20 | 153 | 1.6 | 6.4 | 0.00 | 0.00 | 0.00 | 91 | 1019.3 |
| 20260906113508 | 20 | 153 | 0.0 | 3.2 | 0.00 | 0.00 | 0.00 | 91 | 1019.3 |
| 20260906113005 | 20 | 122 | 0.0 | 6.4 | 0.00 | 0.00 | 0.00 | 91 | 1019.3 |
| 20260906112503 | 20 | 157 | 0.0 | 6.4 | 0.00 | 0.00 | 0.00 | 91 | 1019.4 |
| 20260906112003 | 20 | 157 | 1.6 | 8.0 | 0.00 | 0.00 | 0.00 | 91 | 1019.3 |
| 20260906111508 | 20 | 128 | 1.6 | 8.0 | 0.00 | 0.00 | 0.00 | 91 | 1019.4 |
| 20260906111002 | 20 | 91 | 1.6 | 8.0 | 0.00 | 0.00 | 0.00 | 91 | 1019.4 |
| 20260906110507 | 20 | 134 | 1.6 | 11.3 | 0.00 | 0.00 | 0.00 | 91 | 1019.3 |
| 20260906110009 | 20 | 123 | 1.6 | 11.3 | 0.00 | 0.00 | 0.00 | 91 | 1019.3 |
| 20260906105509 | 20 | 134 | 3.2 | 9.7 | 0.00 | 0.00 | 0.00 | 91 | 1019.1 |
| 20260906105002 | 20 | 105 | 0.0 | 4.8 | 0.00 | 0.00 | 0.00 | 91 | 1019.0 |
| 20260906104510 | 20 | 123 | 0.0 | 1.6 | 0.00 | 0.00 | 0.00 | 91 | 1018.9 |
| 20260906104008 | 20 | 132 | 0.0 | 4.8 | 0.00 | 0.00 | 0.00 | 91 | 1018.8 |
| 20260906103511 | 20 | 132 | 0.0 | 6.4 | 0.00 | 0.00 | 0.00 | 91 | 1018.6 |
| 20260906103004 | 20 | 106 | 0.0 | 6.4 | 0.00 | 0.00 | 0.00 | 91 | 1018.5 |
| 20260906102508 | 20 | 161 | 0.0 | 6.4 | 0.00 | 0.00 | 0.00 | 90 | 1018.4 |
| 20260906102009 | 20 | 153 | 1.6 | 4.8 | 0.00 | 0.00 | 0.00 | 90 | 1018.4 |
| 20260906101505 | 20 | 148 | 1.6 | 6.4 | 0.00 | 0.00 | 0.00 | 90 | 1018.4 |
| 20260906101004 | 20 | 114 | 1.6 | 6.4 | 0.00 | 0.00 | 0.00 | 90 | 1018.4 |
| 20260906100507 | 20 | 146 | 1.6 | 6.4 | 0.00 | 0.00 | 0.00 | 90 | 1018.4 |
| 20260906100006 | 20 | 144 | 0.0 | 6.4 | 0.00 | 0.00 | 0.00 | 90 | 1018.4 |
| 20260906095505 | 20 | 129 | 0.0 | 4.8 | 0.00 | 0.00 | 0.00 | 90 | 1018.3 |
| 20260906095004 | 20 | 132 | 1.6 | 4.8 | 0.00 | 0.00 | 0.00 | 90 | 1018.3 |
| 20260906094510 | 20 | 133 | 0.0 | 6.4 | 0.00 | 0.00 | 0.00 | 90 | 1018.3 |
| 20260906094007 | 20 | 134 | 1.6 | 8.0 | 0.00 | 0.00 | 0.00 | 90 | 1018.3 |
| 20260906093504 | 20 | 112 | 0.0 | 8.0 | 0.00 | 0.00 | 0.00 | 90 | 1018.3 |
| 20260906093013 | 20 | 128 | 0.0 | 8.0 | 0.00 | 0.00 | 0.00 | 90 | 1018.2 |
| 20260906092511 | 20 | 127 | 1.6 | 8.0 | 0.00 | 0.00 | 0.00 | 90 | 1018.1 |
| 20260906092004 | 20 | 148 | 0.0 | 6.4 | 0.00 | 0.00 | 0.00 | 90 | 1017.9 |
| 20260906091516 | 20 | 150 | 0.0 | 11.3 | 0.00 | 0.00 | 0.00 | 89 | 1017.8 |
| 20260906091011 | 20 | 168 | 1.6 | 11.3 | 0.00 | 0.00 | 0.00 | 89 | 1017.8 |
| 20260906090515 | 20 | 150 | 0.0 | 8.0 | 0.00 | 0.00 | 0.00 | 89 | 1017.8 |
| 20260906090007 | 20 | 165 | 1.6 | 8.0 | 0.00 | 0.00 | 0.00 | 89 | 1017.8 |
| 20260906085503 | 20 | 106 | 1.6 | 6.4 | 0.00 | 0.00 | 0.00 | 89 | 1017.7 |
| 20260906085004 | 20 | 136 | 0.0 | 6.4 | 0.00 | 0.00 | 0.00 | 89 | 1017.6 |
| 20260906084509 | 20 | 141 | 1.6 | 6.4 | 0.00 | 0.00 | 0.00 | 89 | 1017.7 |
| 20260906084008 | 20 | 119 | 0.0 | 6.4 | 0.00 | 0.00 | 0.00 | 89 | 1017.8 |
| 20260906083508 | 20 | 67 | 0.0 | 9.7 | 0.00 | 0.00 | 0.00 | 89 | 1017.8 |
| 20260906083012 | 20 | 111 | 1.6 | 9.7 | 0.00 | 0.00 | 0.00 | 89 | 1017.7 |
| 20260906082504 | 20 | 153 | 1.6 | 8.0 | 0.00 | 0.00 | 0.00 | 89 | 1017.8 |
| 20260906082011 | 20 | 132 | 1.6 | 8.0 | 0.00 | 0.00 | 0.00 | 89 | 1017.9 |
| 20260906081526 | 20 | 120 | 1.6 | 8.0 | 0.00 | 0.00 | 0.00 | 89 | 1018.0 |
| 20260906081012 | 20 | 144 | 1.6 | 6.4 | 0.00 | 0.00 | 0.00 | 89 | 1018.2 |
| 20260906080507 | 20 | 143 | 1.6 | 6.4 | 0.00 | 0.00 | 0.00 | 89 | 1018.2 |
| 20260906080021 | 20 | 130 | 0.0 | 3.2 | 0.00 | 0.00 | 0.00 | 89 | 1018.2 |
| 20260906075513 | 20 | 109 | 0.0 | 4.8 | 0.00 | 0.00 | 0.00 | 89 | 1018.3 |
| 20260906075002 | 20 | 109 | 0.0 | 4.8 | 0.00 | 0.00 | 0.00 | 89 | 1018.3 |
| 20260906074514 | 20 | 168 | 0.0 | 4.8 | 0.00 | 0.00 | 0.00 | 90 | 1018.2 |
| 20260906074009 | 20 | 134 | 0.0 | 4.8 | 0.00 | 0.00 | 0.00 | 90 | 1018.2 |
| 20260906073505 | 20 | 134 | 0.0 | 4.8 | 0.00 | 0.00 | 0.00 | 90 | 1018.2 |
| 20260906073010 | 20 | 132 | 1.6 | 9.7 | 0.00 | 0.00 | 0.00 | 90 | 1018.2 |
| 20260906072510 | 20 | 123 | 1.6 | 9.7 | 0.00 | 0.00 | 0.00 | 90 | 1018.1 |
| 20260906072010 | 20 | 132 | 1.6 | 6.4 | 0.00 | 0.00 | 0.00 | 90 | 1018.2 |
| 20260906071518 | 20 | 141 | 1.6 | 6.4 | 0.00 | 0.00 | 0.00 | 90 | 1018.3 |
| 20260906071022 | 20 | 134 | 1.6 | 4.8 | 0.00 | 0.00 | 0.00 | 90 | 1018.3 |
| 20260906070514 | 20 | 137 | 0.0 | 8.0 | 0.00 | 0.00 | 0.00 | 90 | 1018.3 |
| 20260906070024 | 20 | 141 | 1.6 | 8.0 | 0.00 | 0.00 | 0.00 | 90 | 1018.2 |
| 20260906065507 | 20 | 155 | 0.0 | 1.6 | 0.00 | 0.00 | 0.00 | 90 | 1018.3 |
| 20260906065009 | 20 | 140 | 0.0 | 3.2 | 0.00 | 0.00 | 0.00 | 90 | 1018.3 |
| 20260906064530 | 20 | 140 | 1.6 | 3.2 | 0.00 | 0.00 | 0.00 | 90 | 1018.3 |
| 20260906064015 | 20 | 153 | 0.0 | 1.6 | 0.00 | 0.00 | 0.00 | 90 | 1018.3 |
| 20260906063508 | 20 | 153 | 0.0 | 1.6 | 0.00 | 0.00 | 0.00 | 90 | 1018.5 |
| 20260906063024 | 20 | 121 | 0.0 | 1.6 | 0.00 | 0.00 | 0.00 | 90 | 1018.5 |
| 20260906062507 | 20 | 117 | 0.0 | 1.6 | 0.00 | 0.00 | 0.00 | 90 | 1018.5 |
| 20260906062007 | 20 | 117 | 0.0 | 1.6 | 0.00 | 0.00 | 0.00 | 90 | 1018.5 |
| 20260906061512 | 20 | 117 | 0.0 | 1.6 | 0.00 | 0.00 | 0.00 | 89 | 1018.5 |
| 20260906061009 | 20 | 117 | 0.0 | 1.6 | 0.00 | 0.00 | 0.00 | 89 | 1018.5 |
| 20260906060511 | 20 | 117 | 0.0 | 1.6 | 0.00 | 0.00 | 0.00 | 89 | 1018.5 |
| 20260906060015 | 20 | 117 | 0.0 | 1.6 | 0.00 | 0.00 | 0.00 | 89 | 1018.5 |
| 20260906055513 | 20 | 117 | 0.0 | 1.6 | 0.00 | 0.00 | 0.00 | 89 | 1018.6 |
| 20260906055018 | 20 | 117 | 0.0 | 1.6 | 0.00 | 0.00 | 0.00 | 89 | 1018.6 |
| 20260906054528 | 20 | 117 | 0.0 | 1.6 | 0.00 | 0.00 | 0.00 | 89 | 1018.6 |
| 20260906054012 | 21 | 117 | 0.0 | 0.0 | 0.00 | 0.00 | 0.00 | 89 | 1018.7 |
| 20260906053520 | 21 | 117 | 0.0 | 0.0 | 0.00 | 0.00 | 0.00 | 89 | 1018.7 |
| 20260906053032 | 21 | 117 | 0.0 | 0.0 | 0.00 | 0.00 | 0.00 | 88 | 1018.7 |
| 20260906052508 | 21 | 117 | 0.0 | 0.0 | 0.00 | 0.00 | 0.00 | 88 | 1018.6 |
| 20260906052012 | 21 | 117 | 0.0 | 0.0 | 0.00 | 0.00 | 0.00 | 88 | 1018.7 |
| 20260906051530 | 21 | 117 | 0.0 | 0.0 | 0.00 | 0.00 | 0.00 | 88 | 1018.8 |
| 20260906051018 | 21 | 117 | 0.0 | 0.0 | 0.00 | 0.00 | 0.00 | 88 | 1018.7 |
| 20260906050510 | 21 | 117 | 0.0 | 0.0 | 0.00 | 0.00 | 0.00 | 88 | 1018.6 |
| 20260906050017 | 21 | 117 | 0.0 | 0.0 | 0.00 | 0.00 | 0.00 | 88 | 1018.7 |
| 20260906045516 | 21 | 117 | 0.0 | 0.0 | 0.00 | 0.00 | 0.00 | 88 | 1018.6 |
| 20260906045012 | 21 | 117 | 0.0 | 0.0 | 0.00 | 0.00 | 0.00 | 88 | 1018.5 |
| 20260906044520 | 21 | 117 | 0.0 | 0.0 | 0.00 | 0.00 | 0.00 | 88 | 1018.5 |
| 20260906044016 | 21 | 117 | 0.0 | 0.0 | 0.00 | 0.00 | 0.00 | 88 | 1018.4 |
| 20260906043518 | 21 | 117 | 0.0 | 0.0 | 0.00 | 0.00 | 0.00 | 88 | 1018.5 |
| 20260906043026 | 21 | 117 | 0.0 | 0.0 | 0.00 | 0.00 | 0.00 | 88 | 1018.6 |
| 20260906042515 | 21 | 117 | 0.0 | 0.0 | 0.00 | 0.00 | 0.00 | 87 | 1018.6 |
| 20260906042018 | 21 | 117 | 0.0 | 0.0 | 0.00 | 0.00 | 0.00 | 87 | 1018.5 |
| 20260906041536 | 21 | 117 | 0.0 | 0.0 | 0.00 | 0.00 | 0.00 | 88 | 1018.4 |
| 20260906041007 | 21 | 117 | 0.0 | 0.0 | 0.00 | 0.00 | 0.00 | 88 | 1018.4 |
| 20260906040507 | 21 | 117 | 0.0 | 0.0 | 0.00 | 0.00 | 0.00 | 88 | 1018.3 |
| 20260906040025 | 21 | 117 | 0.0 | 0.0 | 0.00 | 0.00 | 0.00 | 87 | 1018.3 |
| 20260906035508 | 22 | 117 | 0.0 | 0.0 | 0.00 | 0.00 | 0.00 | 87 | 1018.4 |
| 20260906035010 | 22 | 117 | 0.0 | 0.0 | 0.00 | 0.00 | 0.00 | 87 | 1018.4 |
| 20260906034504 | 22 | 117 | 0.0 | 0.0 | 0.00 | 0.00 | 0.00 | 87 | 1018.4 |
| 20260906034008 | 22 | 117 | 0.0 | 0.0 | 0.00 | 0.00 | 0.00 | 87 | 1018.4 |
| 20260906033513 | 22 | 117 | 0.0 | 0.0 | 0.00 | 0.00 | 0.00 | 87 | 1018.4 |
| 20260906033026 | 22 | 117 | 0.0 | 0.0 | 0.00 | 0.00 | 0.00 | 87 | 1018.4 |
| 20260906032505 | 22 | 117 | 0.0 | 0.0 | 0.00 | 0.00 | 0.00 | 87 | 1018.4 |
| 20260906032013 | 22 | 117 | 0.0 | 0.0 | 0.00 | 0.00 | 0.00 | 87 | 1018.4 |
| 20260906031544 | 22 | 117 | 0.0 | 0.0 | 0.00 | 0.00 | 0.00 | 87 | 1018.3 |
| 20260906031016 | 22 | 117 | 0.0 | 0.0 | 0.00 | 0.00 | 0.00 | 87 | 1018.3 |
| 20260906030511 | 22 | 117 | 0.0 | 0.0 | 0.00 | 0.00 | 0.00 | 87 | 1018.2 |
| 20260906030008 | 22 | 117 | 0.0 | 0.0 | 0.00 | 0.00 | 0.00 | 87 | 1018.1 |
| 20260906025510 | 22 | 117 | 0.0 | 0.0 | 0.00 | 0.00 | 0.00 | 87 | 1018.2 |
| 20260906025006 | 22 | 117 | 0.0 | 0.0 | 0.00 | 0.00 | 0.00 | 87 | 1018.2 |
| 20260906024516 | 22 | 117 | 0.0 | 0.0 | 0.00 | 0.00 | 0.00 | 87 | 1018.1 |
| 20260906024010 | 22 | 117 | 0.0 | 0.0 | 0.00 | 0.00 | 0.00 | 86 | 1018.0 |
| 20260906023512 | 22 | 117 | 0.0 | 0.0 | 0.00 | 0.00 | 0.00 | 86 | 1018.0 |
| 20260906023012 | 22 | 117 | 0.0 | 1.6 | 0.00 | 0.00 | 0.00 | 86 | 1017.9 |
| 20260906022517 | 22 | 117 | 0.0 | 1.6 | 0.00 | 0.00 | 0.00 | 86 | 1017.8 |
| 20260906022014 | 22 | 117 | 0.0 | 1.6 | 0.00 | 0.00 | 0.00 | 86 | 1017.7 |
| 20260906021510 | 22 | 117 | 0.0 | 1.6 | 0.00 | 0.00 | 0.00 | 86 | 1017.6 |
| 20260906021009 | 22 | 117 | 0.0 | 1.6 | 0.00 | 0.00 | 0.00 | 86 | 1017.5 |
| 20260906020514 | 22 | 117 | 0.0 | 1.6 | 0.00 | 0.00 | 0.00 | 86 | 1017.4 |
| 20260906020037 | 22 | 117 | 0.0 | 1.6 | 0.00 | 0.00 | 0.00 | 86 | 1017.4 |
| 20260906015509 | 22 | 117 | 0.0 | 3.2 | 0.00 | 0.00 | 0.00 | 86 | 1017.3 |
| 20260906015013 | 22 | 117 | 0.0 | 3.2 | 0.00 | 0.00 | 0.00 | 86 | 1017.3 |
| 20260906014516 | 22 | 117 | 0.0 | 1.6 | 0.00 | 0.00 | 0.00 | 85 | 1017.2 |
| 20260906014007 | 22 | 117 | 0.0 | 0.0 | 0.00 | 0.00 | 0.00 | 85 | 1017.2 |
| 20260906013510 | 22 | 117 | 0.0 | 0.0 | 0.00 | 0.00 | 0.00 | 85 | 1017.1 |
| 20260906013016 | 23 | 117 | 0.0 | 1.6 | 0.00 | 0.00 | 0.00 | 85 | 1017.1 |
| 20260906012510 | 23 | 117 | 0.0 | 1.6 | 0.00 | 0.00 | 0.00 | 85 | 1017.0 |
| 20260906012013 | 23 | 117 | 0.0 | 3.2 | 0.00 | 0.00 | 0.00 | 85 | 1016.8 |
| 20260906011523 | 23 | 121 | 1.6 | 3.2 | 0.00 | 0.00 | 0.00 | 85 | 1016.7 |
| 20260906011016 | 23 | 146 | 0.0 | 0.0 | 0.00 | 0.00 | 0.00 | 85 | 1016.7 |
| 20260906010515 | 23 | 146 | 0.0 | 1.6 | 0.00 | 0.00 | 0.00 | 85 | 1016.7 |
| 20260906010016 | 23 | 146 | 0.0 | 3.2 | 0.00 | 0.00 | 0.00 | 85 | 1016.6 |
| 20260906005516 | 23 | 146 | 0.0 | 3.2 | 0.00 | 0.00 | 0.00 | 84 | 1016.6 |
| 20260906005017 | 23 | 51 | 0.0 | 1.6 | 0.00 | 0.00 | 0.00 | 84 | 1016.6 |
| 20260906004515 | 23 | 51 | 0.0 | 1.6 | 0.00 | 0.00 | 0.00 | 84 | 1016.6 |
| 20260906004011 | 23 | 51 | 0.0 | 3.2 | 0.00 | 0.00 | 0.00 | 83 | 1016.5 |
| 20260906003517 | 23 | 107 | 0.0 | 3.2 | 0.00 | 0.00 | 0.00 | 83 | 1016.4 |
| 20260906003011 | 23 | 157 | 0.0 | 1.6 | 0.00 | 0.00 | 0.00 | 82 | 1016.3 |
| 20260906002511 | 23 | 157 | 0.0 | 1.6 | 0.00 | 0.00 | 0.00 | 82 | 1016.4 |
| 20260906002010 | 23 | 157 | 0.0 | 4.8 | 0.00 | 0.00 | 0.00 | 81 | 1016.5 |
| 20260906001518 | 24 | 157 | 0.0 | 4.8 | 0.00 | 0.00 | 0.00 | 81 | 1016.5 |
| 20260906001010 | 24 | 165 | 0.0 | 1.6 | 0.00 | 0.00 | 0.00 | 81 | 1016.5 |
| 20260906000513 | 24 | 165 | 0.0 | 1.6 | 0.00 | 0.00 | 0.00 | 80 | 1016.5 |
| 20260906000027 | 24 | 165 | 0.0 | 1.6 | 0.00 | 0.00 | 0.00 | 80 | 1016.6 |
| 20260905235515 | 24 | 165 | 0.0 | 3.2 | 0.00 | 0.00 | 0.00 | 79 | 1016.5 |
| 20260905235014 | 25 | 165 | 0.0 | 4.8 | 0.00 | 0.00 | 0.00 | 79 | 1016.5 |
| 20260905234525 | 25 | 53 | 0.0 | 4.8 | 0.00 | 0.00 | 0.00 | 79 | 1016.4 |
| 20260905234015 | 25 | 132 | 0.0 | 4.8 | 0.00 | 0.00 | 0.00 | 79 | 1016.4 |
| 20260905233515 | 25 | 128 | 0.0 | 6.4 | 0.00 | 0.00 | 0.00 | 79 | 1016.3 |
| 20260905233022 | 25 | 117 | 0.0 | 6.4 | 0.00 | 0.00 | 0.00 | 78 | 1016.4 |
| 20260905232517 | 25 | 92 | 1.6 | 6.4 | 0.00 | 0.00 | 0.00 | 78 | 1016.3 |
| 20260905232016 | 25 | 64 | 0.0 | 4.8 | 0.00 | 0.00 | 0.00 | 78 | 1016.3 |
| 20260905231527 | 25 | 136 | 0.0 | 3.2 | 0.00 | 0.00 | 0.00 | 78 | 1016.2 |
| 20260905231016 | 25 | 115 | 0.0 | 4.8 | 0.00 | 0.00 | 0.00 | 78 | 1016.2 |
| 20260905230513 | 25 | 109 | 0.0 | 4.8 | 0.00 | 0.00 | 0.00 | 78 | 1016.2 |
| 20260905230020 | 25 | 84 | 0.0 | 4.8 | 0.00 | 0.00 | 0.00 | 78 | 1016.1 |
| 20260905225514 | 25 | 137 | 1.6 | 9.7 | 0.00 | 0.00 | 0.00 | 78 | 1016.0 |
| 20260905225014 | 25 | 132 | 0.0 | 9.7 | 0.00 | 0.00 | 0.00 | 78 | 1016.0 |
| 20260905224526 | 25 | 55 | 0.0 | 8.0 | 0.00 | 0.00 | 0.00 | 78 | 1015.8 |
| 20260905224014 | 25 | 128 | 1.6 | 8.0 | 0.00 | 0.00 | 0.00 | 78 | 1015.8 |
| 20260905223514 | 25 | 44 | 0.0 | 8.0 | 0.00 | 0.00 | 0.00 | 78 | 1015.8 |
| 20260905223031 | 25 | 107 | 1.6 | 8.0 | 0.00 | 0.00 | 0.00 | 78 | 1015.8 |
| 20260905222518 | 25 | 82 | 0.0 | 9.7 | 0.00 | 0.00 | 0.00 | 78 | 1015.8 |
| 20260905222011 | 25 | 130 | 1.6 | 11.3 | 0.00 | 0.00 | 0.00 | 78 | 1015.8 |
| 20260905221529 | 25 | 159 | 1.6 | 11.3 | 0.00 | 0.00 | 0.00 | 77 | 1015.8 |
| 20260905221018 | 25 | 129 | 1.6 | 9.7 | 0.00 | 0.00 | 0.00 | 77 | 1015.9 |
| 20260905220516 | 25 | 45 | 1.6 | 6.4 | 0.00 | 0.00 | 0.00 | 77 | 1015.8 |
| 20260905220018 | 25 | 69 | 3.2 | 6.4 | 0.00 | 0.00 | 0.00 | 77 | 1015.8 |
| 20260905215512 | 25 | 82 | 1.6 | 4.8 | 0.00 | 0.00 | 0.00 | 78 | 1015.8 |
| 20260905215008 | 25 | 118 | 0.0 | 4.8 | 0.00 | 0.00 | 0.00 | 78 | 1015.9 |
| 20260905214523 | 25 | 140 | 0.0 | 6.4 | 0.00 | 0.00 | 0.00 | 78 | 1016.0 |
| 20260905214015 | 25 | 148 | 1.6 | 6.4 | 0.00 | 0.00 | 0.00 | 78 | 1015.9 |
| 20260905213509 | 25 | 98 | 0.0 | 4.8 | 0.00 | 0.00 | 0.00 | 79 | 1015.9 |
| 20260905213018 | 25 | 28 | 1.6 | 4.8 | 0.00 | 0.00 | 0.00 | 78 | 1015.9 |
| 20260905212515 | 25 | 69 | 0.0 | 4.8 | 0.00 | 0.00 | 0.00 | 78 | 1016.2 |
| 20260905212017 | 25 | 146 | 1.6 | 4.8 | 0.00 | 0.00 | 0.00 | 78 | 1016.2 |
| 20260905211515 | 25 | 82 | 0.0 | 8.0 | 0.00 | 0.00 | 0.00 | 78 | 1016.2 |
| 20260905211012 | 25 | 148 | 0.0 | 8.0 | 0.00 | 0.00 | 0.00 | 77 | 1016.1 |
| 20260905210509 | 26 | 82 | 0.0 | 6.4 | 0.00 | 0.00 | 0.00 | 77 | 1016.1 |
| 20260905210015 | 26 | 105 | 1.6 | 8.0 | 0.00 | 0.00 | 0.00 | 77 | 1016.2 |
| 20260905205512 | 26 | 17 | 1.6 | 8.0 | 0.00 | 0.00 | 0.00 | 77 | 1016.3 |
| 20260905205012 | 26 | 343 | 1.6 | 4.8 | 0.00 | 0.00 | 0.00 | 77 | 1016.4 |
| 20260905204520 | 26 | 69 | 0.0 | 4.8 | 0.00 | 0.00 | 0.00 | 77 | 1016.5 |
| 20260905204009 | 26 | 140 | 0.0 | 8.0 | 0.00 | 0.00 | 0.00 | 77 | 1016.6 |
| 20260905203512 | 26 | 129 | 0.0 | 8.0 | 0.00 | 0.00 | 0.00 | 77 | 1016.6 |
| 20260905203028 | 26 | 285 | 0.0 | 8.0 | 0.00 | 0.00 | 0.00 | 76 | 1016.7 |
| 20260905202519 | 26 | 360 | 0.0 | 4.8 | 0.00 | 0.00 | 0.00 | 76 | 1016.8 |
| 20260905202010 | 26 | 143 | 0.0 | 4.8 | 0.00 | 0.00 | 0.00 | 76 | 1016.8 |
| 20260905201526 | 26 | 45 | 0.0 | 6.4 | 0.00 | 0.00 | 0.00 | 76 | 1017.0 |
| 20260905201018 | 26 | 34 | 1.6 | 6.4 | 0.00 | 0.00 | 0.00 | 76 | 1017.0 |
| 20260905200510 | 26 | 351 | 0.0 | 3.2 | 0.00 | 0.00 | 0.00 | 76 | 1017.1 |
| 20260905200020 | 26 | 352 | 0.0 | 3.2 | 0.00 | 0.00 | 0.00 | 77 | 1017.3 |
| 20260905195515 | 26 | 147 | 0.0 | 3.2 | 0.00 | 0.00 | 0.00 | 75 | 1017.3 |
| 20260905195008 | 26 | 147 | 0.0 | 3.2 | 0.00 | 0.00 | 0.00 | 76 | 1017.3 |
| 20260905194516 | 26 | 116 | 0.0 | 6.4 | 0.00 | 0.00 | 0.00 | 77 | 1017.4 |
| 20260905194014 | 26 | 131 | 1.6 | 6.4 | 0.00 | 0.00 | 0.00 | 77 | 1017.4 |
| 20260905193511 | 26 | 100 | 0.0 | 4.8 | 0.00 | 0.00 | 0.00 | 77 | 1017.5 |
| 20260905193015 | 26 | 187 | 0.0 | 3.2 | 0.00 | 0.00 | 0.00 | 77 | 1017.6 |
| 20260905192512 | 25 | 139 | 0.0 | 3.2 | 0.00 | 0.00 | 0.00 | 78 | 1017.5 |
| 20260905192015 | 25 | 159 | 0.0 | 3.2 | 0.00 | 0.00 | 0.00 | 77 | 1017.5 |
| 20260905191531 | 25 | 135 | 0.0 | 3.2 | 0.00 | 0.00 | 0.00 | 78 | 1017.6 |
| 20260905191012 | 25 | 73 | 0.0 | 4.8 | 0.00 | 0.00 | 0.00 | 76 | 1017.6 |
| 20260905190517 | 26 | 91 | 0.0 | 6.4 | 0.00 | 0.00 | 0.00 | 75 | 1017.6 |
| 20260905190023 | 27 | 150 | 1.6 | 6.4 | 0.00 | 0.00 | 0.00 | 74 | 1017.6 |
| 20260905185506 | 26 | 174 | 0.0 | 8.0 | 0.00 | 0.00 | 0.00 | 74 | 1017.6 |
| 20260905185010 | 26 | 146 | 1.6 | 8.0 | 0.00 | 0.00 | 0.00 | 73 | 1017.6 |
| 20260905184514 | 26 | 158 | 1.6 | 6.4 | 0.00 | 0.00 | 0.00 | 74 | 1017.7 |
| 20260905184007 | 26 | 165 | 1.6 | 11.3 | 0.00 | 0.00 | 0.00 | 76 | 1017.6 |
| 20260905183512 | 26 | 130 | 0.0 | 11.3 | 0.00 | 0.00 | 0.00 | 78 | 1017.6 |
| 20260905183021 | 25 | 142 | 0.0 | 6.4 | 0.00 | 0.00 | 0.00 | 78 | 1017.6 |
| 20260905182508 | 25 | 143 | 1.6 | 6.4 | 0.00 | 0.00 | 0.00 | 78 | 1017.8 |
| 20260905182010 | 25 | 135 | 0.0 | 4.8 | 0.00 | 0.00 | 0.00 | 81 | 1017.9 |
| 20260905181523 | 24 | 148 | 0.0 | 3.2 | 0.00 | 0.00 | 0.00 | 81 | 1018.0 |
| 20260905181015 | 24 | 147 | 1.6 | 3.2 | 0.00 | 0.00 | 0.00 | 81 | 1017.9 |
| 20260905180506 | 25 | 152 | 0.0 | 3.2 | 0.00 | 0.00 | 0.00 | 80 | 1018.1 |